[[{"header":{"parameterUnit":"m.s-1","parameterCategory":1,"la1":30.2991,"la2":30.254,"lo1":-89.0895,"lo2":-89.0444,"dy":0.0017,"dx":0.0017,"nx":28,"ny":28,"refTime":"2023-11-09T03:00:00:Z","depth":0,"parameterNumber":2,"parameterNumberName":"U-component_of_WINDS"},"data":[0,0,0,0,0,0,0,0,0,0,0,0,0,0,0,0,0,0,0,0,0,0,0,0,0,0,0,0,0,0,0,0,0,0,0,0,0,0,0,0,0,0,0,0,0,0,0,0,0,0,0,0,0,0,0,0,0,0,-1.067,-1.067,0,-1.0612,-1.0611,-1.0611,-1.0583,-1.0583,-1.0583,-1.0583,-1.052,-1.0519,-1.0517,0,0,0,0,0,0,0,0,0,0,0,0,0,-1.0754,-1.0753,-1.067,-1.067,-1.0669,-1.0612,-1.0611,-1.0611,-1.0583,-1.0583,-1.0583,-1.0583,-1.0521,-1.0519,-1.0517,0,0,0,0,0,0,0,0,0,0,0,0,0,-1.0709,-1.0752,-1.0671,-1.0648,-1.0646,-1.0612,-1.0611,-1.061,-1.0583,-1.0583,-1.0583,-1.0583,-1.0522,-1.0519,-1.0517,-1.0501,0,0,-1.0509,-1.0508,0,0,0,0,0,0,0,0,-1.0711,-1.0706,-1.0652,-1.065,-1.0647,-1.0605,-1.0618,-1.0574,-1.0583,-1.0606,-1.0583,-1.0583,-1.0548,-1.0544,-1.0532,-1.0498,-1.0495,-1.0509,-1.0507,-1.0506,-1.0505,0,0,0,0,0,0,0,-1.0715,-1.0708,-1.0647,-1.0651,-1.0648,-1.064,-1.0634,-1.061,-1.0578,-1.0604,-1.0602,-1.0596,-1.0547,-1.0535,-1.0531,-1.0494,-1.0509,-1.0507,-1.0505,-1.0504,-1.0442,-1.0441,0,0,0,0,0,0,-1.0722,-1.0711,-1.0649,-1.0646,-1.068,-1.0638,-1.0631,-1.0618,-1.0578,-1.0572,-1.0596,-1.0595,-1.0539,-1.0534,-1.0529,-1.0506,-1.0506,-1.0504,-1.0502,-1.0442,-1.0442,-1.0441,0,0,0,0,0,0,-1.0724,-1.0717,-1.0651,-1.0678,-1.0669,-1.0637,-1.0622,-1.0617,-1.0605,-1.0572,-1.0565,-1.059,-1.0539,-1.0532,-1.0508,-1.0504,-1.0503,-1.05,-1.0442,-1.0442,-1.0442,-1.0462,0,0,0,0,0,0,-1.0726,-1.0717,-1.0712,-1.0678,-1.0667,-1.0633,-1.0622,-1.0616,-1.0601,-1.0599,-1.0564,-1.0559,-1.0539,-1.0512,-1.0505,-1.05,-1.0498,-1.0442,-1.0442,-1.0442,-1.0461,-1.0462,-1.0463,0,0,0,0,0,-1.0729,-1.072,-1.0712,-1.0704,-1.066,-1.0633,-1.0626,-1.0604,-1.0601,-1.0595,-1.0573,-1.056,-1.0505,-1.0509,-1.0502,-1.0496,-1.0442,-1.0442,-1.0442,-1.0461,-1.0462,-1.0463,0,0,0,0,0,0,-1.0753,-1.0715,-1.0706,-1.0685,-1.0662,-1.0628,-1.0619,-1.0607,-1.0584,-1.0583,-1.0555,-1.0548,-1.0525,-1.0508,-1.0513,-1.0478,-1.0472,-1.0471,-1.049,-1.0491,-1.0491,-1.0496,-1.0496,0,0,0,0,0,-1.0757,-1.0738,-1.0705,-1.069,-1.0679,-1.0651,-1.0638,-1.0623,-1.0598,-1.0588,-1.0565,-1.054,-1.0518,-1.0503,-1.048,-1.0459,-1.045,-1.0451,-1.0452,-1.0453,-1.0451,-1.0437,-1.0437,-1.044,-1.044,-1.044,0,0,-1.0762,-1.0739,-1.0729,-1.0694,-1.0675,-1.0656,-1.0643,-1.0624,-1.0609,-1.0585,-1.0561,-1.0542,-1.0513,-1.049,-1.0478,-1.0475,-1.0449,-1.0452,-1.0453,-1.0451,-1.0437,-1.0437,-1.0437,-1.044,-1.044,-1.044,0,0,-1.0763,-1.0744,-1.0729,-1.071,-1.0681,-1.0662,-1.0658,-1.0626,-1.0613,-1.0588,-1.057,-1.0551,-1.0513,-1.0492,-1.0477,-1.0469,-1.0455,-1.0462,-1.0467,-1.0453,-1.0453,-1.0453,-1.0449,-1.0448,-1.0461,-1.0461,-1.0461,0,-1.0774,-1.0745,-1.0722,-1.0704,-1.0688,-1.0667,-1.065,-1.0632,-1.0597,-1.0587,-1.0583,-1.0534,-1.0513,-1.0484,-1.0482,-1.0471,-1.0465,-1.0466,-1.0455,-1.0454,-1.0454,-1.045,-1.0448,-1.0462,-1.0462,-1.0462,-1.0462,0,-1.0759,-1.0739,-1.073,-1.0697,-1.0681,-1.0663,-1.0637,-1.0623,-1.0609,-1.059,-1.0564,-1.0538,-1.0509,-1.0501,-1.0487,-1.047,-1.0468,-1.0461,-1.0455,-1.0455,-1.045,-1.0449,-1.0463,-1.0463,-1.0463,-1.0462,0,0,-1.0773,-1.0728,-1.0725,-1.0709,-1.0675,-1.0659,-1.064,-1.0612,-1.06,-1.0576,-1.0559,-1.0527,-1.0519,-1.0501,-1.0485,-1.0473,-1.0467,-1.0466,-1.0465,-1.0467,-1.0445,-1.0451,-1.0449,-1.0458,-1.0458,-1.0458,-1.0447,0,-1.0769,-1.0734,-1.0713,-1.0687,-1.0667,-1.0646,-1.0629,-1.0606,-1.0588,-1.0568,-1.0547,-1.0524,-1.0516,-1.0506,-1.0493,-1.0471,-1.0462,-1.0471,-1.0441,-1.044,-1.0448,-1.0447,-1.0454,-1.0445,-1.0445,-1.0445,-1.0445,0,-1.0759,-1.0736,-1.0708,-1.0675,-1.0666,-1.0652,-1.0624,-1.0606,-1.0578,-1.0566,-1.0546,-1.0529,-1.0507,-1.0503,-1.0471,-1.0478,-1.0464,-1.0451,-1.045,-1.0445,-1.0442,-1.0442,-1.0442,-1.044,-1.0442,-1.0442,-1.0443,0,-1.0771,-1.0733,-1.0711,-1.0699,-1.066,-1.065,-1.0634,-1.0607,-1.0591,-1.0566,-1.0556,-1.0529,-1.0514,-1.0493,-1.0469,-1.0468,-1.0439,-1.0433,-1.0427,-1.0427,-1.0421,-1.0421,-1.0417,-1.0413,-1.0413,-1.0413,-1.0413,0,-1.0768,-1.0751,-1.0716,-1.0703,-1.0683,-1.0658,-1.0639,-1.0621,-1.0596,-1.0578,-1.0558,-1.0541,-1.051,-1.0489,-1.047,-1.0446,-1.0439,-1.0428,-1.0423,-1.0429,-1.043,-1.0419,-1.0419,-1.0413,-1.0413,-1.0413,-1.0413,0,-1.0778,-1.0754,-1.0729,-1.0694,-1.0685,-1.0672,-1.0642,-1.0628,-1.0608,-1.0585,-1.0578,-1.0547,-1.0521,-1.0495,-1.046,-1.0447,-1.0423,-1.0417,-1.0432,-1.0429,-1.0424,-1.0424,-1.0412,-1.0408,-1.0408,-1.0408,-1.0408,0,-1.0777,-1.0764,-1.0728,-1.0715,-1.0699,-1.0677,-1.0661,-1.0636,-1.062,-1.0587,-1.0576,-1.0549,-1.0525,-1.0485,-1.0458,-1.0431,-1.0423,-1.0421,-1.0419,-1.0425,-1.0422,-1.0423,-1.0421,-1.0421,-1.0421,-1.0422,-1.0422,0,-1.0778,-1.0767,-1.0745,-1.0718,-1.07,-1.0678,-1.0655,-1.0645,-1.0615,-1.0597,-1.0571,-1.0553,-1.0517,-1.0489,-1.0459,-1.044,-1.0425,-1.0422,-1.0419,-1.0425,-1.0435,-1.0429,-1.0434,-1.0423,-1.0423,-1.0422,-1.0422,-1.0422,-1.0782,-1.0769,-1.0741,-1.0717,-1.0697,-1.0676,-1.0661,-1.0639,-1.0617,-1.0586,-1.0572,-1.0545,-1.0517,-1.0474,-1.0456,-1.0434,-1.043,-1.0425,-1.0424,-1.0423,-1.0424,-1.0439,-1.0428,-1.0428,-1.0428,-1.0428,-1.0428,0,-1.0781,-1.0762,-1.074,-1.0709,-1.069,-1.0678,-1.0652,-1.0636,-1.0613,-1.0588,-1.0566,-1.0534,-1.0507,-1.0479,-1.045,-1.0438,-1.043,-1.0431,-1.0431,-1.0427,-1.043,-1.0435,-1.0437,-1.0437,-1.0437,-1.0437,-1.0437,-1.0437,-1.0778,-1.0755,-1.074,-1.0706,-1.0687,-1.0661,-1.0647,-1.0627,-1.0607,-1.0573,-1.0551,-1.0533,-1.0506,-1.0475,-1.0449,-1.0441,-1.0431,-1.0434,-1.0424,-1.0427,-1.0427,-1.0426,-1.0431,-1.0432,-1.0432,-1.0423,-1.0423,-1.0423]},{"header":{"parameterUnit":"m.s-1","parameterCategory":1,"la1":30.2991,"la2":30.254,"lo1":-89.0895,"lo2":-89.0444,"dy":0.0017,"dx":0.0017,"nx":28,"ny":28,"refTime":"2023-11-09T03:00:00:Z","depth":0,"parameterNumber":3,"parameterNumberName":"V-component_of_WINDS"},"data":[0,0,0,0,0,0,0,0,0,0,0,0,0,0,0,0,0,0,0,0,0,0,0,0,0,0,0,0,0,0,0,0,0,0,0,0,0,0,0,0,0,0,0,0,0,0,0,0,0,0,0,0,0,0,0,0,0,0,2.4638,2.4638,0,2.4633,2.4633,2.4633,2.4593,2.4592,2.4591,2.459,2.4584,2.4585,2.4586,0,0,0,0,0,0,0,0,0,0,0,0,0,2.4614,2.4615,2.4638,2.4638,2.4638,2.4633,2.4633,2.4633,2.4593,2.4592,2.4591,2.459,2.4584,2.4585,2.4586,0,0,0,0,0,0,0,0,0,0,0,0,0,2.4618,2.4615,2.4638,2.4618,2.4616,2.4633,2.4633,2.4633,2.4594,2.4592,2.4591,2.4589,2.4584,2.4585,2.4586,2.4622,0,0,2.4589,2.459,0,0,0,0,0,0,0,0,2.4618,2.4619,2.4621,2.4619,2.4617,2.4612,2.4622,2.4629,2.4594,2.4602,2.459,2.4589,2.4595,2.4595,2.4597,2.4622,2.4622,2.4589,2.459,2.4591,2.4591,0,0,0,0,0,0,0,2.4618,2.4619,2.4636,2.4621,2.4619,2.4609,2.4608,2.4623,2.4607,2.4601,2.4598,2.4598,2.4593,2.4596,2.4597,2.4621,2.4589,2.459,2.4591,2.4592,2.4677,2.4679,0,0,0,0,0,0,2.4621,2.4619,2.4636,2.4636,2.4614,2.4611,2.4609,2.4615,2.4606,2.4604,2.46,2.4596,2.4595,2.4595,2.4596,2.4639,2.4591,2.4592,2.4592,2.4676,2.4678,2.4679,0,0,0,0,0,0,2.462,2.4622,2.4636,2.4627,2.4628,2.4613,2.4619,2.4616,2.4618,2.4605,2.4602,2.4605,2.4594,2.4595,2.4616,2.4638,2.4592,2.4593,2.4674,2.4676,2.4678,2.4724,0,0,0,0,0,0,2.462,2.4622,2.4636,2.4627,2.4629,2.4657,2.4621,2.4617,2.4621,2.4617,2.461,2.4607,2.4593,2.4615,2.4618,2.4639,2.4594,2.4672,2.4675,2.4678,2.4721,2.4728,2.4734,0,0,0,0,0,2.4619,2.4648,2.4637,2.4639,2.4645,2.4658,2.4659,2.4642,2.4623,2.4636,2.4628,2.4607,2.4635,2.4617,2.462,2.4642,2.467,2.4674,2.4677,2.4718,2.4727,2.4734,0,0,0,0,0,0,2.4659,2.4647,2.4634,2.4661,2.4661,2.4651,2.4668,2.4651,2.4656,2.4652,2.463,2.4629,2.4655,2.465,2.4631,2.4677,2.4649,2.4654,2.4679,2.4688,2.4694,2.4695,2.4595,0,0,0,0,0,2.4671,2.4683,2.4672,2.4697,2.4698,2.4683,2.4688,2.4675,2.4674,2.4673,2.4666,2.4666,2.4675,2.4681,2.4688,2.472,2.4719,2.4737,2.4743,2.4749,2.4753,2.4771,2.4779,2.4691,2.4691,2.4691,0,0,2.4696,2.4691,2.47,2.4705,2.4703,2.4716,2.4683,2.4697,2.4707,2.4675,2.4696,2.4691,2.4689,2.4716,2.4728,2.4714,2.4777,2.4754,2.4758,2.4759,2.4776,2.4784,2.4791,2.4694,2.4693,2.4693,0,0,2.4749,2.4746,2.4767,2.4767,2.4765,2.4755,2.476,2.4753,2.4749,2.4769,2.4746,2.4757,2.4773,2.4773,2.4775,2.4829,2.4811,2.4832,2.4867,2.4885,2.4892,2.4898,2.4918,2.4926,2.4836,2.4836,2.4836,0,2.478,2.4799,2.478,2.4797,2.4801,2.4774,2.4796,2.4796,2.4796,2.48,2.4783,2.4803,2.48,2.4828,2.4841,2.4843,2.4849,2.4833,2.4892,2.4898,2.4904,2.4923,2.4931,2.4839,2.4838,2.4838,2.4838,0,2.4838,2.4851,2.4869,2.4871,2.4877,2.4896,2.4881,2.4889,2.4876,2.4868,2.489,2.4885,2.4892,2.4897,2.4884,2.4924,2.4915,2.4896,2.4868,2.4915,2.4933,2.494,2.4843,2.4842,2.4841,2.484,0,0,2.4914,2.4908,2.4915,2.4916,2.4913,2.4923,2.4941,2.4948,2.4956,2.4958,2.4973,2.4988,2.497,2.4973,2.496,2.4975,2.502,2.4954,2.4954,2.4968,2.5065,2.508,2.5089,2.5008,2.501,2.5011,2.5065,0,2.4966,2.4997,2.4982,2.5016,2.5029,2.5004,2.502,2.502,2.5014,2.5024,2.5016,2.5027,2.5003,2.5005,2.5019,2.5012,2.504,2.5008,2.5023,2.5024,2.5025,2.5098,2.5113,2.5165,2.5072,2.5073,2.5074,0,2.5029,2.5035,2.507,2.5066,2.5071,2.5086,2.5092,2.5102,2.5102,2.5096,2.51,2.5083,2.5102,2.5074,2.5099,2.5078,2.5083,2.5081,2.5082,2.5083,2.5052,2.5102,2.5181,2.5189,2.5085,2.5084,2.5083,0,2.5083,2.5099,2.5123,2.5125,2.512,2.5132,2.513,2.5129,2.5135,2.514,2.5143,2.5151,2.5155,2.5161,2.5147,2.5128,2.5175,2.5145,2.5171,2.5172,2.5183,2.5182,2.5265,2.5185,2.5185,2.5185,2.5185,0,2.5142,2.5165,2.5147,2.5162,2.5187,2.517,2.5195,2.5191,2.519,2.5204,2.5182,2.5195,2.5176,2.5188,2.5177,2.5201,2.5202,2.5199,2.5196,2.5201,2.5202,2.5205,2.5201,2.5187,2.5186,2.5186,2.5186,0,2.5206,2.5195,2.5219,2.5214,2.5213,2.5232,2.5227,2.5241,2.5233,2.5251,2.5254,2.5242,2.5255,2.5242,2.5253,2.5246,2.5278,2.527,2.5279,2.5277,2.5304,2.5302,2.5392,2.5403,2.5315,2.5316,2.5317,0,2.5245,2.5262,2.5259,2.5267,2.5267,2.528,2.5286,2.5271,2.5278,2.528,2.5294,2.5305,2.5312,2.5334,2.5326,2.5335,2.5327,2.5358,2.5328,2.5334,2.5329,2.5328,2.5331,2.5364,2.5365,2.5366,2.5367,0,2.5315,2.5309,2.5319,2.5328,2.5337,2.5342,2.5346,2.5354,2.5338,2.5347,2.536,2.5367,2.5379,2.5391,2.5398,2.5396,2.5379,2.5376,2.5383,2.5389,2.5394,2.5393,2.5296,2.5374,2.5374,2.5373,2.5373,2.5372,2.5368,2.5383,2.5384,2.5396,2.5398,2.5403,2.5416,2.5411,2.5422,2.5431,2.5421,2.5437,2.5438,2.5446,2.5446,2.5459,2.5446,2.5455,2.5458,2.5461,2.5465,2.5392,2.546,2.546,2.546,2.546,2.5459,0,2.5438,2.5438,2.545,2.5457,2.5467,2.5451,2.5455,2.5465,2.548,2.5482,2.5491,2.5506,2.5518,2.5512,2.5522,2.5533,2.5526,2.5536,2.5536,2.5536,2.5476,2.547,2.5542,2.5542,2.5542,2.5542,2.5542,2.5542,2.5476,2.5501,2.5496,2.5521,2.5521,2.5537,2.5541,2.5546,2.5548,2.5567,2.5577,2.5573,2.5572,2.5582,2.5592,2.559,2.5595,2.5609,2.5604,2.5548,2.554,2.5532,2.5526,2.561,2.561,2.5663,2.5664,2.5664]}]]